Weather Roundup
Issued by NWS Springfield, MO

Home | Current Version | Previous Version | Text Only | Print | Product List | Glossary On
Versions: 1 2 3 4 5 6 7 8 9 10 11 12 13 14 15 16 17 18 19 20 21 22 23 24 25 26 27 28 29 30 31 32 33 34 35 36 37 38 39 40 41 42 43 44 45 46 47 48 49 50
000
NZUS99 KSGF 200307
HRRSGF

HOURLY WEATHER
NATIONAL WEATHER SERVICE SPRINGFIELD MO
900 PM CST FRI DEC 19 2014

......SGF CWA......

CITY           SKY/WX    TMP DP  RH WIND       PRES   REMARKS
SPRINGFIELD    CLOUDY    38  36  92 SE8       30.18S FOG     WCI  32
JOPLIN         FOG       39  39 100 CALM      30.20S VSB 1/4
WEST PLAINS    CLOUDY    35  32  88 CALM      30.22S
ROLLA          CLOUDY    34  32  92 SE5       30.20S WCI  30
OSAGE BEACH    CLOUDY    37  34  87 CALM      30.21S
BRANSON        FOG       37  36  93 CALM      30.20S VSB 1/2

......SURROUNDING SGF CWA......

CITY           SKY/WX    TMP DP  RH WIND       PRES   REMARKS
CHANUTE        FOG       34  34 100 NW3       30.21S VSB 1/4
PARSONS        FOG       36  36 100 NW5       30.22F VSB 1/2 WCI  32
COFFEYVILLE    CLOUDY    37  36  96 W6        30.22F FOG     WCI  32
EMPORIA        CLOUDY    32  29  88 S5        30.19S WCI  27
GROVE OK       CLOUDY    41  41 100 CALM      30.22R FOG
ROGERS AR      CLOUDY    40  39  97 SE3       30.19S FOG
SILOAM SPRINGS CLOUDY    39  36  87 CALM      30.21R
HARRISON AR    FOG       36  36 100 SE7       30.19F VSB 1/4 WCI  30
NEAR YELLVILLE CLOUDY    37  32  81 CALM      30.23R

......KANSAS AND MISSOURI......

CITY           SKY/WX    TMP DP  RH WIND       PRES   REMARKS
KANSAS CTY INT DRIZZLE   32  31  96 SW3       30.20S FOG
DOWNTOWN KC    CLOUDY    35  32  88 CALM      30.22R FOG
COLUMBIA       CLOUDY    35  32  88 SE7       30.22S WCI  29
SEDALIA        CLOUDY    36  35  96 SE5       30.21F FOG     WCI  32
ST JOSEPH      CLOUDY    32  29  88 SW5       30.22S WCI  27
ST LOUIS       CLOUDY    36  28  73 E8        30.26S WCI  30
SPIRIT OF STL  CLOUDY    36  29  75 CALM      30.25S
KIRKSVILLE     CLOUDY    32  31  96 SE8       30.23S FOG     WCI  25
WICHITA        CLOUDY    38  33  82 S8        30.18R WCI  32
TOPEKA         CLOUDY    33  28  81 S5        30.21F WCI  29
OLATHE         CLOUDY    33  33 100 SW3       30.20S FOG

......TENNESSEE......

CITY           SKY/WX    TMP DP  RH WIND       PRES   REMARKS
MEMPHIS        CLOUDY    43  33  68 E7        30.23S
NASHVILLE      CLOUDY    37  28  70 NE5       30.24S WCI  33

......ARKANSAS.......

CITY           SKY/WX    TMP DP  RH WIND       PRES   REMARKS
FAYETTEVILLE   CLOUDY    41  41 100 SW3       30.20R
FT SMITH       CLOUDY    43  39  86 NE3       30.22R FOG
LITTLE ROCK    CLOUDY    42  35  76 NE8       30.25S

......OKLAHOMA.......

CITY           SKY/WX    TMP DP  RH WIND       PRES   REMARKS
TULSA          CLOUDY    40  36  86 NW3       30.23R
PONCA CITY     CLOUDY    39  33  79 S3        30.21S
MCALESTER      FOG       42  41  96 N5        30.22S VSB 3/4
OKLAHOMA CITY  CLOUDY    41  36  82 CALM      30.21R

......IOWA............

CITY           SKY/WX    TMP DP  RH WIND       PRES   REMARKS
DES MOINES     CLOUDY    32  29  88 SE9       30.20S FOG     WCI  24
QUAD CITIES    CLOUDY    28  23  81 E8        30.26F WCI  20

......ILLINOIS........

CITY           SKY/WX    TMP DP  RH WIND       PRES   REMARKS
QUINCY         CLOUDY    32  26  78 SE8       30.25R WCI  25
CHICAGO        CLOUDY    30  21  69 N5        30.26F WCI  25



USA.gov is the U.S. government's official web portal to all federal, state and local government web resources and services.